Вернуться в каталог

STARLINK-32405

АктивенСвязьVLEO
NORAD 61636·PAYLOAD·🇺🇸 United States

Запущен Oct 23, 2024 с Cape Canaveral Space Force Station

Loading…

Ближайшие Пролёты (ближайшие 24 часа)

TLE

СвежийSource: CelesTrak SupGP

Эпоха: Sep 14, 2026, 21:15 UTC

1 61636C 24191R   26257.88590278 -.00026997  00000+0 -97772-3 0  2574
2 61636  43.0006 169.8659 0001376 264.2029 220.8760 15.27595657    11

Отслеживайте STARLINK-32405 в реальном времени с AllMySat

Download on the App Store